Location: Highland Meadows Observing Site
(48.4428°N, 114.5461°W)
Time: 01:25:09
(UTC-06:00)

Amateur Radio Satellites - All Passes

Search period start: 16 September 2014 00:55
Search period end: 17 September 2014 00:55
Location: Highland Meadows Observing Site, 48.4428°N, 114.5461°W

Satellite Date Start Highest point End Downlink Frequencies (MHz)
Time Altitude Azimuth
KITSAT 1 16 Sep 01:13:51 01:20:05 24° 349° (N) 01:26:21 435.175 FM
UOSAT-12 16 Sep 01:15:55 01:18:43 16° 110° (ESE) 01:21:33 437.025 FM, 437.400 FM
Saudisat 1A 16 Sep 01:20:10 01:22:48 15° 23° (NNE) 01:25:26 436.775 MHz
Oscar 16 16 Sep 02:12:42 02:16:32 20° 91° (E) 02:20:20 437.025 USB, Beacon 2401.1428
JAS-1B 16 Sep 02:19:46 02:21:50 12° 83° (E) 02:23:53 435.800 - 435.900 CW/SSB
SO-50 16 Sep 02:35:18 02:38:59 23° 328° (NNW) 02:42:46 436.795 FM
ITAMSAT 1 16 Sep 02:47:51 02:51:24 18° 90° (E) 02:54:56 435.822 SSB
Uribyol 2 16 Sep 02:52:50 02:56:47 21° 91° (E) 03:00:43 436.500 FM
UOSAT-12 16 Sep 02:53:35 02:58:15 82° 309° (NW) 03:03:01 437.025 FM, 437.400 FM
AO-Echo 16 Sep 02:58:01 03:01:55 24° 93° (E) 03:05:52 ?
Saudisat 1A 16 Sep 02:59:02 03:03:23 52° 45° (NE) 03:07:41 436.775 MHz
KITSAT 1 16 Sep 03:11:57 03:18:33 26° 19° (NNE) 03:25:08 435.175 FM
Oscar 19 16 Sep 03:13:00 03:18:10 63° 102° (ESE) 03:23:17 437.125 CW, 437.150 USB
AO-27 16 Sep 03:20:58 03:25:43 35° 96° (E) 03:30:28 436.795 MHz FM
Oscar 10/S400 16 Sep 03:31:36 04:33:33 26° 235° (SW) 07:45:13 145.825 - 145.975 CW/USB, Beacon 145.810 USB
RS-15 16 Sep 03:43:57 03:47:12 12° 92° (E) 03:50:25 29.354 - 29.394 USB, Beacon 29.352 USB
Gurwin Techsat 1B 16 Sep 03:51:04 03:55:50 32° 95° (E) 04:00:33 435.225 FM
Oscar 16 16 Sep 03:51:11 03:56:20 62° 289° (WNW) 04:01:25 437.025 USB, Beacon 2401.1428
OPAL 16 Sep 04:01:39 04:05:50 25° 58° (ENE) 04:10:02 ?
JAS-1B 16 Sep 04:07:45 04:13:48 82° 105° (ESE) 04:19:28 435.800 - 435.900 CW/SSB
SO-50 16 Sep 04:19:38 04:21:15 12° 353° (N) 04:22:54 436.795 FM
ITAMSAT 1 16 Sep 04:26:13 04:31:25 70° 288° (WNW) 04:36:36 435.822 SSB
ISS 16 Sep 04:26:53 04:28:11 12° 134° (SE) 04:29:29 145.800 FM
TMSAT-1 16 Sep 04:30:30 04:35:41 52° 100° (E) 04:40:51 436.925 FM
Uribyol 2 16 Sep 04:31:31 04:36:40 61° 290° (WNW) 04:41:48 436.500 FM
UOSAT-12 16 Sep 04:35:32 04:39:07 21° 331° (NNW) 04:42:45 437.025 FM, 437.400 FM
AO-Echo 16 Sep 04:36:21 04:40:55 46° 291° (WNW) 04:45:34 ?
AO-7 16 Sep 04:38:41 04:44:37 21° 89° (E) 04:50:30 29.400 - 29.500 MHz
Saudisat 1A 16 Sep 04:39:07 04:42:42 24° 245° (WSW) 04:46:15 436.775 MHz
Oscar 19 16 Sep 04:53:10 04:57:05 22° 301° (WNW) 05:00:58 437.125 CW, 437.150 USB
AO-27 16 Sep 05:00:30 05:05:16 37° 295° (WNW) 05:10:02 436.795 MHz FM
KITSAT 1 16 Sep 05:07:46 05:15:46 59° 46° (NE) 05:23:43 435.175 FM
Gurwin Techsat 1B 16 Sep 05:30:56 05:35:54 41° 294° (WNW) 05:40:50 435.225 FM
Oscar 16 16 Sep 05:32:59 05:34:41 12° 309° (NW) 05:36:23 437.025 USB, Beacon 2401.1428
OPAL 16 Sep 05:39:16 05:44:22 57° 257° (WSW) 05:49:32 ?
Uosat F 16 Sep 05:42:42 05:47:30 43° 99° (E) 05:52:16 435.120 FM
RS-15 16 Sep 05:46:12 05:56:45 55° 115° (ESE) 06:07:13 29.354 - 29.394 USB, Beacon 29.352 USB
JAS-1B 16 Sep 05:59:40 06:03:41 19° 308° (NW) 06:07:32 435.800 - 435.900 CW/SSB
ISS 16 Sep 06:01:03 06:04:20 59° 152° (SSE) 06:07:38 145.800 FM
SO-50 16 Sep 06:01:18 06:03:51 14° 18° (NNE) 06:06:26 436.795 FM
ITAMSAT 1 16 Sep 06:07:43 06:10:01 13° 308° (NW) 06:12:20 435.822 SSB
TMSAT-1 16 Sep 06:10:57 06:15:20 27° 299° (WNW) 06:19:43 436.925 FM
Uribyol 2 16 Sep 06:13:32 06:15:08 11° 309° (NW) 06:16:44 436.500 FM
Hamsat 16 Sep 06:13:35 06:13:59 10° 85° (E) 06:14:22 145.90 MHz
STRAND 1 16 Sep 06:15:09 06:19:07 24° 60° (ENE) 06:23:06 ?
UOSAT-12 16 Sep 06:19:29 06:21:03 11° 355° (N) 06:22:38 437.025 FM, 437.400 FM
AO-7 16 Sep 06:30:13 06:38:34 86° 109° (ESE) 06:46:53 29.400 - 29.500 MHz
KITSAT 1 16 Sep 07:03:32 07:10:58 42° 248° (WSW) 07:18:22 435.175 FM
Uosat F 16 Sep 07:21:50 07:26:08 29° 297° (WNW) 07:30:25 435.120 FM
JAS-2 16 Sep 07:23:22 07:29:01 57° 101° (E) 07:35:21 435.800 - 435.900 CW/SSB, 435.910 FM
ISS 16 Sep 07:37:53 07:41:09 51° 352° (N) 07:44:25 145.800 FM
SO-50 16 Sep 07:41:14 07:45:43 38° 41° (NE) 07:50:15 436.795 FM
Hamsat 16 Sep 07:46:18 07:50:37 90° 115° (ESE) 07:54:52 145.90 MHz
STRAND 1 16 Sep 07:52:57 07:57:57 57° 259° (W) 08:03:00 ?
RS-15 16 Sep 07:58:23 08:09:09 58° 321° (NW) 08:19:59 29.354 - 29.394 USB, Beacon 29.352 USB
UOSAT-12 16 Sep 08:00:24 08:03:12 15° 20° (NNE) 08:06:01 437.025 FM, 437.400 FM
AO-7 16 Sep 08:23:50 08:30:31 29° 311° (NW) 08:37:12 29.400 - 29.500 MHz
SO-67 16 Sep 08:44:07 08:47:33 61° 101° (E) 08:50:58 435.3500 MHz FM
JAS-2 16 Sep 09:09:09 09:13:54 28° 298° (WNW) 09:19:05 435.800 - 435.900 CW/SSB, 435.910 FM
ISS 16 Sep 09:14:53 09:18:11 55° 11° (NNE) 09:21:28 145.800 FM
SO-50 16 Sep 09:21:51 09:26:21 41° 240° (WSW) 09:30:53 436.795 FM
Hamsat 16 Sep 09:24:10 09:25:54 12° 303° (WNW) 09:27:38 145.90 MHz
MaSat-1 16 Sep 09:30:01 09:34:04 25° 107° (ESE) 09:38:05 437.345 MHz
HO-68 16 Sep 09:30:22 09:35:42 22° 89° (E) 09:41:01 435.675 MHz FM
UOSAT-12 16 Sep 09:39:59 09:44:33 44° 43° (NE) 09:49:03 437.025 FM, 437.400 FM
RS-15 16 Sep 10:14:36 10:24:18 34° 354° (N) 10:34:10 29.354 - 29.394 USB, Beacon 29.352 USB
SO-67 16 Sep 10:18:50 10:20:08 12° 299° (WNW) 10:21:25 435.3500 MHz FM
Oscar 11 16 Sep 10:42:36 10:46:14 25° 94° (E) 10:49:49 145.825 FM, Beacon 2401.500 USB
ISS 16 Sep 10:51:41 10:54:55 47° 211° (SSW) 10:58:07 145.800 FM
UKube-1 16 Sep 10:55:15 10:59:25 42° 99° (E) 11:03:34 145.840 MHz, 145.915 MHz
MaSat-1 16 Sep 11:05:37 11:10:36 57° 305° (NW) 11:15:28 437.345 MHz
HO-68 16 Sep 11:17:02 11:24:15 83° 289° (WNW) 11:31:26 435.675 MHz FM
UOSAT-12 16 Sep 11:20:23 11:24:37 33° 243° (WSW) 11:28:46 437.025 FM, 437.400 FM
FUNcube-1 16 Sep 11:58:00 12:02:37 63° 101° (E) 12:07:12 145.950 - 145.970 MHz USB
Oscar 11 16 Sep 12:18:29 12:22:32 38° 292° (WNW) 12:26:32 145.825 FM, Beacon 2401.500 USB
RS-15 16 Sep 12:29:43 12:40:07 44° 27° (NNE) 12:50:47 29.354 - 29.394 USB, Beacon 29.352 USB
UKube-1 16 Sep 12:31:56 12:35:24 24° 297° (WNW) 12:38:52 145.840 MHz, 145.915 MHz
MaSat-1 16 Sep 12:45:41 12:48:25 14° 325° (NW) 12:51:04 437.345 MHz
Sapphire 16 Sep 12:53:51 12:56:54 15° 104° (ESE) 12:59:58 437.095 MHz 1200 baud AX-25 AFSK
Oscar 19 16 Sep 12:56:03 12:59:58 22° 59° (ENE) 13:03:53 437.125 CW, 437.150 USB
HO-68 16 Sep 13:05:51 13:11:01 22° 310° (NW) 13:16:11 435.675 MHz FM
JAS-1B 16 Sep 13:06:39 13:13:04 26° 57° (ENE) 13:18:44 435.800 - 435.900 CW/SSB
AO-27 16 Sep 13:06:44 13:09:16 14° 53° (NE) 13:11:49 436.795 MHz FM
PCSat 16 Sep 13:19:32 13:24:00 27° 110° (ESE) 13:28:29 145.825 MHz
Oscar 16 16 Sep 13:32:59 13:37:52 43° 67° (ENE) 13:42:46 437.025 USB, Beacon 2401.1428
FUNcube-1 16 Sep 13:35:20 13:38:34 19° 299° (WNW) 13:41:48 145.950 - 145.970 MHz USB
Gurwin Techsat 1B 16 Sep 13:39:32 13:42:00 13° 52° (NE) 13:44:29 435.225 FM
AO-7 16 Sep 13:54:35 13:58:21 14° 33° (NNE) 14:02:06 29.400 - 29.500 MHz
ITAMSAT 1 16 Sep 14:09:11 14:13:58 40° 66° (ENE) 14:18:46 435.822 SSB
Uribyol 2 16 Sep 14:14:08 14:19:03 46° 67° (ENE) 14:24:00 436.500 FM
AO-Echo 16 Sep 14:14:39 14:19:11 46° 69° (ENE) 14:23:41 ?
TMSAT-1 16 Sep 14:17:19 14:21:03 20° 58° (ENE) 14:24:47 436.925 FM
Oscar 19 16 Sep 14:33:43 14:38:52 64° 258° (WSW) 14:44:04 437.125 CW, 437.150 USB
Sapphire 16 Sep 14:34:08 14:39:33 88° 123° (ESE) 14:45:01 437.095 MHz 1200 baud AX-25 AFSK
RS-15 16 Sep 14:42:36 14:53:41 83° 235° (SW) 15:05:12 29.354 - 29.394 USB, Beacon 29.352 USB
AO-27 16 Sep 14:42:47 14:47:57 76° 72° (ENE) 14:53:09 436.795 MHz FM
JAS-1B 16 Sep 14:54:22 15:03:07 85° 254° (WSW) 15:10:25 435.800 - 435.900 CW/SSB
PCSat 16 Sep 15:01:44 15:07:05 58° 310° (NW) 15:12:28 145.825 MHz
Oscar 16 16 Sep 15:12:49 15:17:21 30° 266° (W) 15:21:55 437.025 USB, Beacon 2401.1428
Gurwin Techsat 1B 16 Sep 15:15:48 15:21:04 71° 72° (ENE) 15:26:23 435.225 FM
Uosat F 16 Sep 15:23:46 15:26:34 15° 55° (NE) 15:29:22 435.120 FM
AO-7 16 Sep 15:41:23 15:49:02 43° 57° (ENE) 15:56:41 29.400 - 29.500 MHz
ITAMSAT 1 16 Sep 15:48:57 15:53:32 32° 265° (W) 15:58:10 435.822 SSB
Uribyol 2 16 Sep 15:54:20 15:58:43 28° 266° (W) 16:03:09 436.500 FM
AO-Echo 16 Sep 15:54:23 15:58:12 24° 267° (W) 16:02:00 ?
TMSAT-1 16 Sep 15:55:08 16:00:25 74° 257° (WSW) 16:05:45 436.925 FM
Sapphire 16 Sep 16:19:22 16:23:42 24° 325° (NW) 16:28:03 437.095 MHz 1200 baud AX-25 AFSK
AO-27 16 Sep 16:24:49 16:28:04 17° 271° (W) 16:31:20 436.795 MHz FM
PCSat 16 Sep 16:48:04 16:51:41 18° 333° (NNW) 16:55:18 145.825 MHz
JAS-1B 16 Sep 16:48:35 16:54:26 20° 271° (W) 16:59:44 435.800 - 435.900 CW/SSB
RS-15 16 Sep 16:56:11 17:04:28 25° 258° (WSW) 17:13:00 29.354 - 29.394 USB, Beacon 29.352 USB
Gurwin Techsat 1B 16 Sep 16:57:59 17:01:36 18° 271° (W) 17:05:14 435.225 FM
Uosat F 16 Sep 16:59:38 17:04:39 88° 73° (ENE) 17:09:41 435.120 FM
Hamsat 16 Sep 17:09:36 17:11:52 14° 59° (ENE) 17:14:07 145.90 MHz
AO-7 16 Sep 17:33:33 17:41:40 55° 258° (WSW) 17:49:48 29.400 - 29.500 MHz
TMSAT-1 16 Sep 17:39:51 17:41:17 11° 276° (W) 17:42:42 436.925 FM
JAS-2 16 Sep 17:40:54 17:45:34 34° 64° (ENE) 17:50:12 435.800 - 435.900 CW/SSB, 435.910 FM
MaSat-1 16 Sep 17:42:59 17:45:40 16° 37° (NE) 17:48:09 437.345 MHz
OPAL 16 Sep 17:45:46 17:50:12 28° 96° (E) 17:54:33 ?
Sapphire 16 Sep 18:07:39 18:09:13 11° 351° (N) 18:10:48 437.095 MHz 1200 baud AX-25 AFSK
PCSat 16 Sep 18:36:29 18:37:29 10° 359° (N) 18:38:29 145.825 MHz
Uosat F 16 Sep 18:41:43 18:44:08 13° 273° (W) 18:46:34 435.120 FM
Hamsat 16 Sep 18:42:52 18:47:14 81° 257° (WSW) 18:51:38 145.90 MHz
Saudisat 1A 16 Sep 18:48:23 18:52:21 34° 119° (ESE) 18:56:22 436.775 MHz
MaSat-1 16 Sep 19:19:01 19:23:12 83° 241° (WSW) 19:26:44 437.345 MHz
SO-67 16 Sep 19:20:36 19:23:47 35° 71° (ENE) 19:26:59 435.3500 MHz FM
OPAL 16 Sep 19:24:18 19:29:17 47° 295° (WNW) 19:34:11 ?
JAS-2 16 Sep 19:25:53 19:30:44 36° 263° (W) 19:35:30 435.800 - 435.900 CW/SSB, 435.910 FM
AO-7 16 Sep 19:34:41 19:36:25 11° 279° (W) 19:38:10 29.400 - 29.500 MHz
KITSAT 1 16 Sep 19:42:49 19:48:23 21° 102° (ESE) 19:53:56 435.175 FM
Sapphire 16 Sep 19:52:41 19:55:13 13° 18° (NNE) 19:57:46 437.095 MHz 1200 baud AX-25 AFSK
STRAND 1 16 Sep 19:59:45 20:04:29 36° 97° (E) 20:09:11 ?
HO-68 16 Sep 20:03:23 20:09:08 27° 53° (NE) 20:14:54 435.675 MHz FM
PCSat 16 Sep 20:19:54 20:23:20 17° 26° (NNE) 20:26:45 145.825 MHz
Saudisat 1A 16 Sep 20:27:46 20:31:54 39° 318° (NW) 20:36:05 436.775 MHz
SO-67 16 Sep 20:54:39 20:56:58 17° 268° (W) 20:59:18 435.3500 MHz FM
FUNcube-1 16 Sep 21:25:13 21:26:41 12° 55° (NE) 21:28:09 145.950 - 145.970 MHz USB
KITSAT 1 16 Sep 21:34:31 21:42:37 83° 123° (ESE) 21:50:45 435.175 FM
Sapphire 16 Sep 21:35:24 21:40:22 34° 42° (NE) 21:45:17 437.095 MHz 1200 baud AX-25 AFSK
STRAND 1 16 Sep 21:39:01 21:43:39 35° 295° (WNW) 21:48:17 ?
Oscar 11 16 Sep 21:41:08 21:45:01 32° 67° (ENE) 21:48:55 145.825 FM, Beacon 2401.500 USB
HO-68 16 Sep 21:49:03 21:56:12 78° 254° (WSW) 22:03:24 435.675 MHz FM
UKube-1 16 Sep 21:54:11 21:58:27 61° 71° (ENE) 22:02:45 145.840 MHz, 145.915 MHz
PCSat 16 Sep 22:02:42 22:08:02 52° 49° (NE) 22:13:19 145.825 MHz
Saudisat 1A 16 Sep 22:10:32 22:12:41 13° 341° (NNW) 22:14:51 436.775 MHz
FUNcube-1 16 Sep 22:57:52 23:02:15 77° 74° (ENE) 23:06:47 145.950 - 145.970 MHz USB
Oscar 11 16 Sep 23:17:21 23:21:12 30° 265° (W) 23:25:05 145.825 FM, Beacon 2401.500 USB
Sapphire 16 Sep 23:18:45 23:24:01 52° 243° (WSW) 23:29:15 437.095 MHz 1200 baud AX-25 AFSK
KITSAT 1 16 Sep 23:31:33 23:38:54 36° 328° (NNW) 23:46:16 435.175 FM
UKube-1 16 Sep 23:32:24 23:35:04 16° 270° (W) 23:37:45 145.840 MHz, 145.915 MHz
SO-50 16 Sep 23:40:38 23:44:24 27° 116° (ESE) 23:48:15 436.795 FM
HO-68 16 Sep 23:40:56 23:45:05 16° 274° (W) 23:49:15 435.675 MHz FM
PCSat 16 Sep 23:46:32 23:51:13 30° 249° (WSW) 23:55:53 145.825 MHz
Saudisat 1A 16 Sep 23:53:55 23:54:14 10° 6° (N) 23:54:33 436.775 MHz
FUNcube-1 17 Sep 00:37:12 00:39:16 13° 273° (W) 00:41:21 145.950 - 145.970 MHz USB
